Flag for Canada Weather past 2 weeks in Calgary, Alberta, Canada

Now
54 °F

Broken clouds.


Feels Like: 53 °F
Forecast: 35 / 60 °F
Wind: 5 mph from Northwest

Location: Calgary International

Current Time: Oct 21, 2014 at 8:10:36 PM

Latest Report: Oct 21, 2014 at 7:00 PM


Visibility: 30 mi

Pressure: 29.77 "Hg

Humidity: 38%

Dew point: 28 °F

Location of CalgaryLocation

Historic Weather in Calgary — Graph

°F

Calgary temperature yesterday

Maximum temperature yesterday: 73 °F (at 2:00 PM)
Minimum temperature yesterday: 39 °F (at 3:00 AM)
Average temperature yesterday: 56 °F

Past Weeks' High & Low Weather Summary

 TemperatureHumidityPressure
High73 °F (Oct 20, 2:00 PM)100% (Oct 16, 4:00 AM)30.23 "Hg (Oct 16, 4:00 AM)
Low30 °F (Oct 17, 8:00 AM)19% (Oct 20, 5:00 PM)29.55 "Hg (Oct 14, 10:00 AM)
Average50 °F55%29.88 "Hg
* Reported Oct 6 7:00 PM — Oct 21 7:00 PM, Calgary, Weather by CustomWeather, © 2014

Note: Actual official high and low records may vary slightly from our data, if they occured in-between our weather recording intervals... More about our weather records

Advertising

Calgary weather history for previous 24 hours

 ConditionsComfort  
Time TempWeatherWind HumidityBarometerVisibility
7:00 PM
Oct 21
54 °FBroken clouds.5 mph38%29.77 "Hg30 mi
6:00 PM57 °FBroken clouds.7 mph33%29.75 "Hg40 mi
5:00 PM59 °FBroken clouds.13 mph31%29.73 "Hg40 mi
4:00 PM61 °FPartly sunny.16 mph29%29.71 "Hg40 mi
3:00 PM59 °FBroken clouds.13 mph34%29.69 "Hg40 mi
2:00 PM59 °FPartly sunny.15 mph39%29.68 "Hg40 mi
1:00 PM57 °FPartly sunny.6 mph44%29.69 "Hg40 mi
12:00 PM55 °FMostly cloudy.5 mph47%29.69 "Hg40 mi
11:00 AM52 °FMostly cloudy.2 mph54%29.69 "Hg40 mi
10:00 AM50 °FPartly sunny.3 mph62%29.69 "Hg40 mi
9:00 AM48 °FPassing clouds.2 mph58%29.66 "Hg40 mi
8:00 AM46 °FOvercast.2 mph62%29.66 "Hg30 mi
7:00 AM46 °FPassing clouds.No wind62%29.65 "Hg15 mi
6:00 AM45 °FPassing clouds.5 mph66%29.65 "Hg15 mi
5:00 AM45 °FPassing clouds.9 mph61%29.65 "Hg15 mi
4:00 AM45 °FPassing clouds.6 mph61%29.62 "Hg15 mi
3:00 AM48 °FPassing clouds.No wind54%29.59 "Hg15 mi
2:00 AM50 °FPassing clouds.6 mph50%29.57 "Hg15 mi
1:00 AM50 °FPassing clouds.6 mph50%29.59 "Hg15 mi
12:00 AM54 °FPassing clouds.6 mph41%29.59 "Hg15 mi
11:00 PM
Oct 20
54 °FPassing clouds.5 mph41%29.61 "Hg15 mi
10:00 PM59 °FPassing clouds.6 mph34%29.63 "Hg15 mi
9:00 PM61 °FPassing clouds.3 mph34%29.61 "Hg15 mi
8:00 PM61 °FPassing clouds.7 mph34%29.65 "Hg15 mi
Weather by CustomWeather, © 2014

See weather overviewHow to use our weather pages